This is the latest recevied weather packets stored in our database for station/object KE6YLF. If no packets are shown the sender has not sent any weather packets the latest 10 day(s).
| Time | Temp. | Humidity | Pressure | Rain* | Wind** | Luminosity | Snow |
|---|---|---|---|---|---|---|---|
| 1778283058 | 36.11° C | 17% | 1073 hPa | 0 mm | - | - | - |
| 1778282755 | 35.56° C | 18% | 1073 hPa | 0 mm | - | - | - |
| 1778282452 | 36.67° C | 18% | 1073.1 hPa | 0 mm | - | - | - |
| 1778282149 | 36.67° C | 17% | 1073.1 hPa | 0 mm | - | - | - |
| 1778281846 | 36.11° C | 18% | 1073.1 hPa | 0 mm | - | - | - |
| 1778281543 | 35.56° C | 18% | 1073.2 hPa | 0 mm | - | - | - |
| 1778281240 | 35.56° C | 17% | 1073.3 hPa | 0 mm | - | - | - |
| 1778280937 | 35.56° C | 17% | 1073.3 hPa | 0 mm | - | - | - |
| 1778280633 | 36.67° C | 17% | 1073.3 hPa | 0 mm | - | - | - |
| 1778280331 | 36.11° C | 18% | 1073.4 hPa | 0 mm | - | - | - |
| 1778280028 | 36.11° C | 18% | 1073.4 hPa | 0 mm | - | - | - |
| 1778279726 | 36.11° C | 18% | 1073.4 hPa | 0 mm | - | - | - |
| 1778279423 | 35.56° C | 18% | 1073.4 hPa | 0 mm | - | - | - |
| 1778279121 | 36.67° C | 18% | 1073.6 hPa | 0 mm | - | - | - |
| 1778278817 | 35.56° C | 18% | 1074 hPa | 0 mm | - | - | - |
| 1778278514 | 35.56° C | 19% | 1073.7 hPa | 0 mm | - | - | - |
| 1778278210 | 35.56° C | 18% | 1073.7 hPa | 0 mm | - | - | - |
| 1778277906 | 35.56° C | 18% | 1074 hPa | 0 mm | - | - | - |
| 1778277602 | 36.11° C | 18% | 1074.2 hPa | 0 mm | - | - | - |
| 1778277299 | 35.56° C | 18% | 1074.1 hPa | 0 mm | - | - | - |
| 1778276996 | 36.11° C | 18% | 1074.1 hPa | 0 mm | - | - | - |
| 1778276694 | 35° C | 19% | 1074.3 hPa | 0 mm | - | - | - |
| 1778276389 | 35° C | 19% | 1074.4 hPa | 0 mm | - | - | - |
| 1778276087 | 35° C | 19% | 1074.5 hPa | 0 mm | - | - | - |
| 1778275782 | 35.56° C | 19% | 1074.5 hPa | 0 mm | - | - | - |
* Rain latest hour (hover to see other rain measurements)
** Current wind speed in m/s (hover to see current wind gust speed)